Racecast

Dorion Teague

East Bay Heat Track Club (CA) · 11-12 · Compare head to head

Athlete rating 83.5
Best race 94.2 TF
Races 36
Seasons 3 2012 — 2014
Speed rating — all races

Track & Field

TF speed rating

2014 TF 85.9

East Bay Heat Track Club (CA) · Grade 11-12

Date Meet Event Result Place Rating Difficulty PR/SR Flags
2014-04-05 Sacramento Speed Showcase 200m 29.52 9th · 1st on team -0.033 SR
2014-04-05 Sacramento Speed Showcase 400m 1:06.38 8th · 1st on team -0.033 ★PR SR
2014-04-05 Sacramento Speed Showcase 800m 2:40.21 8th · 1st on team 94.2 -0.033 ★PR ★R SR RSR
2014-03-22 RPM lj 13-00.00 -0.012
2014-03-22 RPM 400m 1:13.54 20th · 2nd on team -0.012 SR
2014-03-22 RPM 800m 3:18.3 21st · 2nd on team 77.7 -0.012 SR RSR

2013 TF 82.2

East Bay Heat Track Club (CA) · Grade 11-12

Date Meet Event Result Place Rating Difficulty PR/SR Flags
2013-07-12 Track City Classic lj 4.02m -0.035
2013-07-12 Track City Classic 400m 1:15.61 32nd · 2nd on team -0.035
2013-07-12 Track City Classic 200m 31.93 28th · 3rd on team -0.035
2013-06-01 100 Black Men Tommie Smith lj 13-01.00 -0.036
2013-06-01 100 Black Men Tommie Smith 400m 1:15.02 12th · 1st on team -0.036
2013-06-01 100 Black Men Tommie Smith 200m 29.66 4th · 1st on team -0.036
2013-05-18 3M Track Club lj 12-01.00 -0.028
2013-05-18 3M Track Club 200m 31.5 25th · 2nd on team -0.028
2013-05-18 3M Track Club 400m 1:18.04 40th · 2nd on team -0.028
2013-05-11 Classic Track Club Relays 100m 14.88 17th · 1st on team -0.010 ★PR SR
2013-05-11 Classic Track Club Relays 200m 30.94 8th · 1st on team -0.010
2013-05-11 Classic Track Club Relays 400m 1:15.03 15th · 2nd on team -0.010
2013-04-20 Shor / Sheppard Classic 800m 3:04.55 23rd · 2nd on team 82.5 -0.023 R RSR
2013-04-20 Shor / Sheppard Classic 200m 29.27 18th · 1st on team -0.023 ★PR SR
2013-04-13 CA Track Club 200m 32.1 8th · 1st on team -0.038 SR
2013-04-13 CA Track Club 400m 1:15.3 7th · 1st on team -0.038
2013-04-06 Sacramento Speed Showcase 800m 3:04.26 25th · 2nd on team 81.9 -0.031 PR R SR RSR
2013-04-06 Sacramento Speed Showcase 400m 1:11.75 20th · 1st on team -0.031 PR SR

2012 TF

East Bay Heat Track Club (CA) · Grade 9-10

Date Meet Event Result Place Rating Difficulty PR/SR Flags
2012-06-15 AAU Area 23 National Qualifier 400m 1:13.85 6th · 1st on team -0.025 PR SR
2012-06-15 AAU Area 23 National Qualifier 100m 15.28 10th · 1st on team -0.025 PR SR
2012-06-15 AAU Area 23 National Qualifier 200m 32.03 7th · 1st on team -0.025 PR SR
2012-05-19 3M Track Meet 400m 1:21.66 29th · 1st on team -0.031
2012-05-19 3M Track Meet 200m 34.44 29th · 1st on team -0.031 PR SR
2012-05-05 Hercules Running Rebels / Top Pacers Invitational 400m 1:23.51 35th · 2nd on team -0.038
2012-04-21 Shor / Sheppard Classic 400m 1:19.19 22nd · 1st on team -0.023 PR SR
2012-04-21 Shor / Sheppard Classic 100m 15.94 27th · 1st on team -0.023
2012-04-14 CA Spring Fling Track Invitational 200m 35.61 12th · 1st on team -0.038 PR SR
2012-04-14 CA Spring Fling Track Invitational 100m 16.1 10th · 1st on team -0.038
2012-04-07 Phenom Elite 100m 15.66 17th · 1st on team -0.022 PR SR
2012-04-07 Phenom Elite 400m 1:22.8 31st · 1st on team -0.022 PR SR